Simultaneous Nadir Overpasses (SNOs) Predictions

Prediction of SNOs between NOAA-21 and LANDSAT-8 Satellite Orbit:

Table of predicted SNOs for the next 14.0 days since TLE Epoch: 2/10/2024
Index Date (NOAA-21) Time (NOAA-21) Lat,Lon (NOAA-21) SZA (NOAA-21 ) Date (LANDSAT-8) Time (LANDSAT-8) Lat,Lon (LANDSAT-8) SZA (LANDSAT-8 ) Distance(km) Time Diff (sec)
1 02/12/2024 00:16:27 69.96, 171.99 83.95 02/12/2024 00:16:49 69.94, 171.97 83.91 3.18 22
2 02/12/2024 01:07:08 -69.83, -20.49 96.21 02/12/2024 01:06:19 -69.82, -20.55 96.21 2.52 49
3 02/14/2024 15:42:36 -70.18, 120.14 96.71 02/14/2024 15:43:48 -70.14, 120.50 96.78 14.34 72
4 02/14/2024 16:33:17 69.91, -72.13 82.99 02/14/2024 16:33:17 69.93, -72.16 83.01 2.49 0
5 02/14/2024 17:23:59 -69.82, 95.31 97.12 02/14/2024 17:22:47 -69.82, 95.32 97.11 1.02 72
6 02/17/2024 07:59:23 -69.98,-123.75 97.85 02/17/2024 08:00:18 -69.99,-123.83 97.85 3.41 55
7 02/17/2024 08:50:07 69.86, 43.73 82.02 02/17/2024 08:49:45 69.88, 43.66 82.04 3.27 22
8 02/17/2024 09:40:35 -69.03,-147.76 98.87 02/17/2024 09:39:27 -69.11,-149.74 98.69 78.83 68
9 02/20/2024 00:16:13 -69.99, -7.98 98.78 02/20/2024 00:16:44 -69.97, -7.98 98.82 2.83 31
10 02/20/2024 01:06:57 69.88, 159.49 81.09 02/20/2024 01:06:11 69.86, 159.51 81.07 3.22 46
11 02/22/2024 15:42:26 70.33, -60.02 80.62 02/22/2024 15:43:37 70.23, -59.34 80.48 27.53 71
12 02/22/2024 16:33:03 -69.97, 107.85 99.78 02/22/2024 16:33:10 -69.96, 107.90 99.79 2.25 7
13 02/22/2024 17:23:47 69.86, -84.69 80.10 02/22/2024 17:22:37 69.85, -84.61 80.09 3.41 70



Historial Predications of SNOs between NOAA-21 and LANDSAT-8
